Flag for Switzerland Weather past 2 weeks in Zürich, Zurich, Switzerland

Now
67 °F

Mild.


Feels Like: 67 °F
Forecast: 53 / 74 °F
Wind: 3 mph from South

Location: Zurich Town / Ville.

Current Time: Jul 25, 2014 at 11:14:34 AM

Latest Report: Jul 25, 2014 at 10:00 AM


Visibility: N/A

Pressure: 29.92 "Hg

Humidity: 72%

Dew point: 57 °F

Location of ZürichLocation

Historic Weather in Zürich — Graph

°F

Zürich temperature yesterday

Maximum temperature yesterday: 75 °F (at 3:00 PM)
Minimum temperature yesterday: 59 °F (at 6:00 AM)
Average temperature yesterday: 66 °F

Past Weeks' High & Low Weather Summary

 TemperatureHumidityPressure
High87 °F (Jul 19, 6:00 PM)99% (Jul 23, 1:00 AM)30.19 "Hg (Jul 23, 1:00 AM)
Low51 °F (Jul 10, 10:00 AM)25% (Jul 18, 3:00 PM)29.78 "Hg (Jul 20, 3:00 AM)
Average65 °F76%29.97 "Hg
* Reported Jul 10 10:00 AM — Jul 25 10:00 AM, Zürich, Weather by CustomWeather, © 2014

Note: Actual official high and low records may vary slightly from our data, if they occured in-between our weather recording intervals... More about our weather records

Advertising

Zürich weather history for previous 24 hours

 ConditionsComfort  
Time TempWeatherWind HumidityBarometerVisibility
10:00 AM
Jul 25
67 °FMild.3 mph72%29.92 "HgN/A
9:00 AM63 °FMild.2 mph83%29.93 "HgN/A
8:00 AM61 °FSunny.2 mph87%29.94 "HgN/A
7:00 AM59 °FCool.2 mph91%29.94 "HgN/A
6:00 AM59 °FCool.1 mph91%29.93 "HgN/A
5:00 AM59 °FCool.1 mph92%29.93 "HgN/A
4:00 AM59 °FCool.No wind91%29.93 "HgN/A
3:00 AM60 °FCool.1 mph90%29.93 "HgN/A
2:00 AM60 °FCool.No wind87%29.93 "HgN/A
1:00 AM61 °FCool.1 mph85%29.93 "HgN/A
12:00 AM62 °FCool.1 mph83%29.93 "HgN/A
11:00 PM
Jul 24
63 °FMild.2 mph79%29.92 "HgN/A
10:00 PM63 °FMild.1 mph79%29.91 "HgN/A
9:00 PM66 °FMild.2 mph73%29.88 "HgN/A
8:00 PM71 °FScattered clouds.5 mph60%29.85 "HgN/A
7:00 PM71 °FMild.2 mph53%29.84 "HgN/A
6:00 PM71 °FMild.5 mph51%29.85 "HgN/A
5:00 PM74 °FMild.3 mph46%29.83 "HgN/A
4:00 PM72 °FMild.6 mph56%29.85 "HgN/A
3:00 PM75 °FMild.2 mph50%29.84 "HgN/A
2:00 PM74 °FPartly sunny.3 mph56%29.85 "HgN/A
1:00 PM72 °FMild.3 mph56%29.86 "HgN/A
12:00 PM69 °FMild.2 mph59%29.87 "HgN/A
11:00 AM66 °FMild.2 mph72%29.88 "HgN/A
Weather by CustomWeather, © 2014

See weather overviewHow to use our weather pages